Regional Weather Roundup
Issued by NWS

Home | Current Version | Previous Version | Text Only | Print | Product List | Glossary On
Versions: 1 2 3 4 5 6 7 8 9 10 11 12 13 14 15 16 17 18 19 20 21 22 23 24 25 26 27 28 29 30 31 32 33 34 35 36 37 38 39 40 41 42 43 44 45 46 47 48 49 50
000
ASUS44 KBMX 031310
RWRAL

ALABAMA REGIONAL WEATHER ROUNDUP
NATIONAL WEATHER SERVICE BIRMINGHAM AL
800 AM CDT THU SEP 03 2015

NOTE: "FAIR" INDICATES FEW OR NO CLOUDS BELOW 12,000 FEET
WITH NO SIGNIFICANT WEATHER AND/OR OBSTRUCTIONS TO VISIBILITY.

THE REMARK "TC" DENOTES TEMPERATURE IN DEGREES CELSIUS.

ALZ001>011-014-016>018-020-031400-
NORTH ALABAMA

CITY           SKY/WX    TMP DP  RH WIND       PRES   REMARKS
MUSCLE SHOALS  MOSUNNY   74  72  93 CALM      30.05S FOG
HUNTSVILLE     CLOUDY    78  73  84 NW3       30.04R
DECATUR        CLOUDY    75  73  93 CALM      30.05R FOG
HALEYVILLE     FAIR      73  73 100 CALM      30.09R FOG
GADSDEN        PTSUNNY   73  70  88 CALM      30.02S
$$

ALZ012-013-022-023-030>036-040>044-031400-
WEST CENTRAL ALABAMA

CITY           SKY/WX    TMP DP  RH WIND       PRES   REMARKS
TUSCALOOSA     SUNNY     77  74  90 N3        30.03R FOG
$$

ALZ015-024>027-033>036-040>044-031400-
CENTRAL ALABAMA

CITY           SKY/WX    TMP DP  RH WIND       PRES   REMARKS
BIRMINGHAM     PTSUNNY   77  74  90 CALM      30.06R
MONTGOMERY     LGT RAIN  78  73  84 NW3       30.02R
SHELBY CO ARPT PTSUNNY   76  74  93 CALM      30.04R FOG
MAXWELL AFB    CLOUDY    77  74  91 CALM      30.02R
GREENVILLE     NOT AVBL
$$

ALZ019-021-028-029-037-038-045>048-031400-
EAST CENTRAL ALABAMA

CITY           SKY/WX    TMP DP  RH WIND       PRES   REMARKS
ANNISTON       LGT RAIN  74  71  91 CALM      30.04R FOG
ALEXANDER CITY LGT RAIN  77  74  91 CALM      30.04S
AUBURN         NOT AVBL
$$

ALZ051>064-031400-
SOUTHWEST ALABAMA

CITY           SKY/WX    TMP DP  RH WIND       PRES   REMARKS
MOBILE         CLOUDY    77  75  93 N3        30.02R
BROOKLEY FIELD CLOUDY    80  74  81 N6        30.02R
EVERGREEN      CLOUDY    76  73  91 N5        30.01S
$$

ALZ049-050-065>069-031400-
SOUTHEAST ALABAMA

CITY           SKY/WX    TMP DP  RH WIND       PRES   REMARKS
DOTHAN         CLOUDY    77  72  84 W6        30.04R
OZARK          CLOUDY    77  72  86 CALM      30.00R
TROY           CLOUDY    77  73  87 N7        30.02R
EUFAULA        FAIR      80  76  87 CALM      29.99S
$$



USA.gov is the U.S. government's official web portal to all federal, state and local government web resources and services.